When you browse on this site, cookies collect data to enhance your experience and personalize the content and advertising you see.
Visit our Privacy Policy to learn more. By continuing to use the site, you agree to this use of cookies and data.
  • In Spain
  • List of Countries
  • For 7 days
  • Water Temperature
  • Satellite Maps
  • Weather Map
  • Weather Widgets
  • user-avatar
    Login

    Hourly Weather Lambaréné

    Today, 17 December, Monday

    Time Temperature Precipitation Wind Pressure Humidity
    00:00 +26°C° 0 mm 1 mps 755 mmHg 95%
    01:00 +26°C° 0 mm 1 mps 755 mmHg 96%
    02:00 +26°C° 0 mm 1 mps 755 mmHg 96%
    03:00 +25°C° 0 mm 1 mps 755 mmHg 97%
    04:00 +25°C° 0 mm 1 mps 754 mmHg 97%
    05:00 +25°C° 0 mm 1 mps 755 mmHg 97%
    06:00 +26°C° 0 mm 1 mps 755 mmHg 96%
    07:00 +26°C° 0 mm 1 mps 755 mmHg 95%
    08:00 +28°C° 0 mm 1 mps 755 mmHg 87%
    09:00 +29°C° 0 mm 1 mps 755 mmHg 78%
    10:00 +31°C° 0 mm 1 mps 755 mmHg 70%
    11:00 +32°C° 0.3 mm 1 mps 755 mmHg 67%
    12:00 +33°C° 0.3 mm 1 mps 754 mmHg 65%
    13:00 +34°C° 0.3 mm 1 mps 754 mmHg 62%
    14:00 +33°C° 0.7 mm 1 mps 753 mmHg 65%
    15:00 +32°C° 0.7 mm 1 mps 753 mmHg 68%
    16:00 +32°C° 0.7 mm 2 mps 752 mmHg 72%
    17:00 +30°C° 0.3 mm 1 mps 752 mmHg 78%
    18:00 +29°C° 0.3 mm 1 mps 753 mmHg 84%
    19:00 +28°C° 0.3 mm 1 mps 753 mmHg 90%
    20:00 +27°C° 0 mm 1 mps 754 mmHg 91%
    21:00 +27°C° 0 mm 1 mps 755 mmHg 93%
    22:00 +27°C° 0 mm 1 mps 755 mmHg 94%
    23:00 +26°C° 0.2 mm 1 mps 755 mmHg 95%

    Tomorrow, 18 December, Tuesday

    Time Temperature Precipitation Wind Pressure Humidity
    00:00 +26°C° 0.2 mm 1 mps 755 mmHg 96%
    01:00 +26°C° 0.2 mm 1 mps 755 mmHg 96%
    02:00 +26°C° 0.3 mm 1 mps 755 mmHg 97%
    03:00 +26°C° 0.3 mm 1 mps 754 mmHg 97%
    04:00 +26°C° 0.3 mm 1 mps 754 mmHg 97%
    05:00 +26°C° 0 mm 1 mps 754 mmHg 97%
    06:00 +26°C° 0 mm 1 mps 754 mmHg 96%
    07:00 +26°C° 0 mm 1 mps 755 mmHg 96%
    08:00 +27°C° 0 mm 1 mps 755 mmHg 88%
    09:00 +29°C° 0 mm 1 mps 755 mmHg 81%
    10:00 +30°C° 0 mm 1 mps 756 mmHg 74%
    11:00 +32°C° 0.2 mm 1 mps 755 mmHg 69%
    12:00 +33°C° 0.2 mm 1 mps 755 mmHg 64%
    13:00 +34°C° 0.2 mm 1 mps 754 mmHg 59%
    14:00 +33°C° 0.3 mm 1 mps 753 mmHg 61%
    15:00 +34°C° 0.3 mm 2 mps 753 mmHg 64%
    16:00 +32°C° 0.3 mm 2 mps 752 mmHg 66%
    17:00 +31°C° 0.1 mm 2 mps 753 mmHg 72%
    18:00 +29°C° 0.1 mm 1 mps 753 mmHg 79%
    19:00 +28°C° 0.1 mm 1 mps 753 mmHg 85%
    20:00 +27°C° 0.4 mm 1 mps 754 mmHg 87%
    21:00 +27°C° 0.4 mm 1 mps 755 mmHg 90%
    22:00 +26°C° 0.4 mm 1 mps 756 mmHg 92%
    23:00 +26°C° 0.2 mm 1 mps 755 mmHg 93%

    Day after tomorrow, 19 December, Wednesday

    Time Temperature Precipitation Wind Pressure Humidity
    00:00 +26°C° 0.2 mm 1 mps 755 mmHg 94%
    01:00 +26°C° 0.2 mm 1 mps 755 mmHg 95%
    02:00 +25°C° 0 mm 1 mps 755 mmHg 96%
    03:00 +25°C° 0 mm 1 mps 754 mmHg 96%
    04:00 +25°C° 0 mm 1 mps 754 mmHg 97%
    05:00 +25°C° 0 mm 1 mps 754 mmHg 96%
    06:00 +25°C° 0 mm 1 mps 755 mmHg 95%
    07:00 +26°C° 0 mm 1 mps 755 mmHg 95%
    08:00 +27°C° 0 mm 1 mps 755 mmHg 87%
    09:00 +29°C° 0 mm 1 mps 756 mmHg 80%
    10:00 +30°C° 0 mm 1 mps 756 mmHg 72%
    11:00 +31°C° 0.1 mm 1 mps 755 mmHg 66%
    12:00 +33°C° 0.1 mm 1 mps 755 mmHg 61%
    13:00 +34°C° 0.1 mm 1 mps 754 mmHg 56%
    14:00 +34°C° 0.6 mm 2 mps 753 mmHg 61%
    15:00 +32°C° 0.6 mm 2 mps 753 mmHg 67%
    16:00 +31°C° 0.6 mm 2 mps 752 mmHg 72%
    17:00 +29°C° 0.7 mm 2 mps 752 mmHg 79%
    18:00 +28°C° 0.7 mm 2 mps 753 mmHg 86%
    19:00 +26°C° 0.7 mm 1 mps 754 mmHg 92%
    20:00 +26°C° 0 mm 1 mps 754 mmHg 93%
    21:00 +26°C° 0 mm 1 mps 755 mmHg 94%
    22:00 +26°C° 0 mm 1 mps 755 mmHg 96%
    23:00 +25°C° 0 mm 1 mps 755 mmHg 96%

    20 December, Thursday

    Time Temperature Precipitation Wind Pressure Humidity
    00:00 +25°C° 0 mm 1 mps 755 mmHg 97%
    01:00 +25°C° 0 mm 1 mps 755 mmHg 97%
    02:00 +25°C° 0 mm 1 mps 755 mmHg 97%
    03:00 +23°C° 0 mm 0 mps 754 mmHg 98%
    04:00 +23°C° 0 mm 0 mps 754 mmHg 98%
    05:00 +23°C° 0 mm 0 mps 754 mmHg 97%
    06:00 +23°C° 0 mm 0 mps 755 mmHg 96%
    07:00 +23°C° 0 mm 0 mps 755 mmHg 95%
    08:00 +27°C° 0 mm 1 mps 755 mmHg 86%
    09:00 +29°C° 0 mm 1 mps 755 mmHg 77%
    10:00 +31°C° 0 mm 1 mps 755 mmHg 68%
    11:00 +32°C° 0 mm 1 mps 755 mmHg 64%
    12:00 +33°C° 0 mm 1 mps 754 mmHg 60%
    13:00 +34°C° 0 mm 1 mps 753 mmHg 56%
    14:00 +33°C° 1 mm 1 mps 753 mmHg 63%
    15:00 +31°C° 1 mm 1 mps 752 mmHg 70%
    16:00 +30°C° 1 mm 2 mps 752 mmHg 76%
    17:00 +29°C° 0.7 mm 2 mps 753 mmHg 82%
    18:00 +28°C° 0.7 mm 1 mps 753 mmHg 87%
    19:00 +26°C° 0.7 mm 1 mps 754 mmHg 92%
    20:00 +26°C° 0 mm 1 mps 754 mmHg 93%
    21:00 +26°C° 0 mm 1 mps 755 mmHg 94%
    22:00 +26°C° 0 mm 1 mps 755 mmHg 94%
    23:00 +25°C° 0 mm 1 mps 755 mmHg 95%

    21 December, Friday

    Time Temperature Precipitation Wind Pressure Humidity
    00:00 +25°C° 0 mm 1 mps 755 mmHg 96%
    01:00 +23°C° 0 mm 0 mps 754 mmHg 96%
    02:00 +23°C° 0 mm 0 mps 754 mmHg 96%
    03:00 +23°C° 0 mm 0 mps 754 mmHg 96%
    04:00 +23°C° 0 mm 0 mps 754 mmHg 96%
    05:00 +25°C° 0 mm 1 mps 754 mmHg 96%
    06:00 +25°C° 0 mm 1 mps 754 mmHg 96%
    07:00 +25°C° 0 mm 1 mps 755 mmHg 95%
    08:00 +27°C° 0 mm 1 mps 755 mmHg 86%
    09:00 +29°C° 0 mm 1 mps 755 mmHg 77%
    10:00 +31°C° 0 mm 2 mps 755 mmHg 68%
    11:00 +32°C° 0.1 mm 1 mps 755 mmHg 65%
    12:00 +32°C° 0.1 mm 1 mps 754 mmHg 63%
    13:00 +33°C° 0.1 mm 1 mps 753 mmHg 60%
    14:00 +32°C° 1 mm 1 mps 753 mmHg 64%
    15:00 +32°C° 1 mm 1 mps 752 mmHg 69%
    16:00 +31°C° 1 mm 2 mps 751 mmHg 73%
    17:00 +30°C° 0.5 mm 1 mps 752 mmHg 79%
    18:00 +28°C° 0.5 mm 1 mps 752 mmHg 85%
    19:00 +27°C° 0.5 mm 1 mps 753 mmHg 91%
    20:00 +26°C° 0 mm 1 mps 753 mmHg 92%
    21:00 +26°C° 0 mm 1 mps 754 mmHg 93%
    22:00 +26°C° 0 mm 1 mps 754 mmHg 95%
    23:00 +26°C° 0 mm 1 mps 754 mmHg 95%

    22 December, Saturday

    Time Temperature Precipitation Wind Pressure Humidity
    00:00 +25°C° 0 mm 1 mps 754 mmHg 96%
    01:00 +25°C° 0 mm 1 mps 754 mmHg 97%
    02:00 +25°C° 0 mm 1 mps 753 mmHg 97%
    03:00 +25°C° 0 mm 1 mps 753 mmHg 97%
    04:00 +25°C° 0 mm 1 mps 753 mmHg 97%
    05:00 +25°C° 0 mm 1 mps 753 mmHg 96%
    06:00 +25°C° 0 mm 1 mps 754 mmHg 96%
    07:00 +26°C° 0 mm 1 mps 754 mmHg 95%
    08:00 +27°C° 0 mm 1 mps 754 mmHg 90%
    09:00 +28°C° 0 mm 1 mps 754 mmHg 85%
    10:00 +29°C° 0 mm 1 mps 754 mmHg 79%
    11:00 +30°C° 0 mm 1 mps 754 mmHg 76%
    12:00 +30°C° 0 mm 1 mps 753 mmHg 72%
    13:00 +31°C° 0 mm 1 mps 753 mmHg 68%
    14:00 +31°C° 0.1 mm 1 mps 752 mmHg 68%
    15:00 +31°C° 0.1 mm 1 mps 752 mmHg 68%
    16:00 +31°C° 0.1 mm 1 mps 751 mmHg 67%
    17:00 +30°C° 0.2 mm 1 mps 752 mmHg 74%
    18:00 +28°C° 0.2 mm 1 mps 752 mmHg 80%
    19:00 +27°C° 0.2 mm 1 mps 752 mmHg 87%
    20:00 +27°C° 0 mm 1 mps 753 mmHg 89%
    21:00 +26°C° 0 mm 1 mps 753 mmHg 91%
    22:00 +26°C° 0 mm 1 mps 754 mmHg 93%
    23:00 +26°C° 0 mm 1 mps 754 mmHg 94%
    Show more